Time,TemperatureF,DewpointF,PressureIn,WindDirection,WindDirectionDegrees,WindSpeedMPH,WindSpeedGustMPH,Humidity,HourlyPrecipIn,Conditions,Clouds,dailyrainin,SolarRadiationWatts/m^2,SoftwareType,DateUTC
2013-01-06 00:00:00,31.2,24.8,30.05,SSW,197,7.0,-999.0,77,0.00,,,0.00,0,WeatherHawk,2013-01-06 05:00:00,
2013-01-06 00:04:00,31.3,24.6,30.05,SSE,152,7.0,-999.0,76,0.00,,,0.00,0,WeatherHawk,2013-01-06 05:04:00,
2013-01-06 00:10:00,31.4,24.7,30.04,SSW,197,13.0,-999.0,76,0.00,,,0.00,0,WeatherHawk,2013-01-06 05:10:00,
2013-01-06 00:15:00,31.5,24.5,30.03,South,178,9.0,-999.0,75,0.00,,,0.00,0,WeatherHawk,2013-01-06 05:15:00,
2013-01-06 00:20:00,31.6,24.3,30.03,South,189,9.0,-999.0,74,0.00,,,0.00,0,WeatherHawk,2013-01-06 05:20:00,
2013-01-06 00:25:00,31.9,24.2,30.03,SSW,194,10.0,-999.0,73,0.00,,,0.00,0,WeatherHawk,2013-01-06 05:25:00,
2013-01-06 00:29:00,32.0,23.3,30.03,South,188,10.0,-999.0,70,0.00,,,0.00,0,WeatherHawk,2013-01-06 05:29:00,
2013-01-06 00:34:00,31.8,23.2,30.03,South,182,6.0,-999.0,70,0.00,,,0.00,0,WeatherHawk,2013-01-06 05:34:00,
2013-01-06 00:40:00,31.9,23.2,30.02,South,182,8.0,-999.0,70,0.00,,,0.00,0,WeatherHawk,2013-01-06 05:40:00,
2013-01-06 00:45:00,31.9,23.5,30.02,South,170,12.0,-999.0,71,0.00,,,0.00,1,WeatherHawk,2013-01-06 05:45:00,
2013-01-06 00:50:00,31.8,23.5,30.03,SW,232,7.0,-999.0,71,0.00,,,0.00,0,WeatherHawk,2013-01-06 05:50:00,
2013-01-06 00:55:00,31.9,23.3,30.02,SSE,161,6.0,-999.0,70,0.00,,,0.00,0,WeatherHawk,2013-01-06 05:55:00,
2013-01-06 01:05:00,32.1,23.4,30.02,SSE,150,11.0,-999.0,70,0.00,,,0.00,1,WeatherHawk,2013-01-06 06:05:00,
2013-01-06 01:10:00,32.2,22.8,30.02,SSW,206,10.0,-999.0,68,0.00,,,0.00,0,WeatherHawk,2013-01-06 06:10:00,
2013-01-06 01:15:00,32.2,22.8,30.01,SE,143,9.0,-999.0,68,0.00,,,0.00,0,WeatherHawk,2013-01-06 06:15:00,
2013-01-06 01:20:00,32.5,23.1,30.00,SSE,155,16.0,-999.0,68,0.00,,,0.00,0,WeatherHawk,2013-01-06 06:20:00,
2013-01-06 01:25:00,32.5,22.7,30.00,SW,229,9.0,-999.0,67,0.00,,,0.00,0,WeatherHawk,2013-01-06 06:25:00,
2013-01-06 01:30:00,32.5,22.4,30.00,SSE,154,15.0,-999.0,66,0.00,,,0.00,0,WeatherHawk,2013-01-06 06:30:00,
2013-01-06 01:35:00,32.7,21.6,30.01,SSE,147,12.0,-999.0,63,0.00,,,0.00,1,WeatherHawk,2013-01-06 06:35:00,
2013-01-06 01:40:00,32.6,21.0,30.00,SW,214,9.0,-999.0,62,0.00,,,0.00,0,WeatherHawk,2013-01-06 06:40:00,
2013-01-06 01:45:00,32.8,21.2,30.00,ESE,116,9.0,-999.0,62,0.00,,,0.00,0,WeatherHawk,2013-01-06 06:45:00,
2013-01-06 01:50:00,32.8,20.9,29.99,South,190,14.0,-999.0,61,0.00,,,0.00,1,WeatherHawk,2013-01-06 06:50:00,
2013-01-06 01:55:00,32.8,20.5,29.99,ENE,74,10.0,-999.0,60,0.00,,,0.00,0,WeatherHawk,2013-01-06 06:55:00,
2013-01-06 01:59:00,32.9,19.7,29.99,ESE,108,12.0,-999.0,58,0.00,,,0.00,0,WeatherHawk,2013-01-06 06:59:00,
2013-01-06 02:05:00,32.8,19.7,30.00,SSE,165,10.0,-999.0,58,0.00,,,0.00,0,WeatherHawk,2013-01-06 07:05:00,
2013-01-06 02:10:00,32.8,19.3,29.99,SE,136,11.0,-999.0,57,0.00,,,0.00,0,WeatherHawk,2013-01-06 07:10:00,
2013-01-06 02:20:00,32.9,19.3,29.99,South,184,7.0,-999.0,57,0.00,,,0.00,0,WeatherHawk,2013-01-06 07:20:00,
2013-01-06 02:25:00,32.9,19.4,29.99,SSW,210,9.0,-999.0,57,0.00,,,0.00,0,WeatherHawk,2013-01-06 07:25:00,
2013-01-06 02:30:00,32.7,19.2,29.99,SW,214,5.0,-999.0,57,0.00,,,0.00,0,WeatherHawk,2013-01-06 07:30:00,
2013-01-06 02:35:00,32.9,18.9,29.99,SSE,155,7.0,-999.0,56,0.00,,,0.00,0,WeatherHawk,2013-01-06 07:35:00,
2013-01-06 02:40:00,32.9,18.9,29.98,SSE,150,7.0,-999.0,56,0.00,,,0.00,0,WeatherHawk,2013-01-06 07:40:00,
2013-01-06 02:45:00,32.9,19.0,29.99,SE,127,13.0,-999.0,56,0.00,,,0.00,0,WeatherHawk,2013-01-06 07:45:00,
2013-01-06 02:55:00,33.0,19.0,30.00,SE,133,9.0,-999.0,56,0.00,,,0.00,0,WeatherHawk,2013-01-06 07:55:00,
2013-01-06 03:00:00,33.0,18.6,29.98,SSW,194,8.0,-999.0,55,0.00,,,0.00,0,WeatherHawk,2013-01-06 08:00:00,
2013-01-06 03:18:00,33.1,18.3,29.98,SSW,209,12.0,-999.0,54,0.00,,,0.00,0,WeatherHawk,2013-01-06 08:18:00,
2013-01-06 03:25:00,33.1,18.3,29.98,SE,130,7.0,-999.0,54,0.00,,,0.00,0,WeatherHawk,2013-01-06 08:25:00,
2013-01-06 03:30:00,33.2,18.0,29.98,WSW,245,9.0,-999.0,53,0.00,,,0.00,2,WeatherHawk,2013-01-06 08:30:00,
2013-01-06 03:35:00,33.1,18.3,29.98,SE,141,6.0,-999.0,54,0.00,,,0.00,0,WeatherHawk,2013-01-06 08:35:00,
2013-01-06 03:40:00,33.0,18.2,29.97,SSE,151,8.0,-999.0,54,0.00,,,0.00,0,WeatherHawk,2013-01-06 08:40:00,
2013-01-06 03:50:00,33.1,18.3,29.97,SSE,150,10.0,-999.0,54,0.00,,,0.00,0,WeatherHawk,2013-01-06 08:50:00,
2013-01-06 03:55:00,33.0,18.2,29.98,SE,140,10.0,-999.0,54,0.00,,,0.00,0,WeatherHawk,2013-01-06 08:55:00,
2013-01-06 04:00:00,33.2,18.3,29.97,SSE,152,7.0,-999.0,54,0.00,,,0.00,0,WeatherHawk,2013-01-06 09:00:00,
2013-01-06 04:05:00,33.1,18.3,29.97,SW,227,5.0,-999.0,54,0.00,,,0.00,0,WeatherHawk,2013-01-06 09:05:00,
2013-01-06 04:10:00,33.2,18.4,29.97,SE,143,15.0,-999.0,54,0.00,,,0.00,0,WeatherHawk,2013-01-06 09:10:00,
2013-01-06 04:20:00,33.2,18.8,29.96,SSW,196,9.0,-999.0,55,0.00,,,0.00,0,WeatherHawk,2013-01-06 09:20:00,
2013-01-06 04:25:00,33.2,18.8,29.97,South,190,10.0,-999.0,55,0.00,,,0.00,0,WeatherHawk,2013-01-06 09:25:00,
2013-01-06 04:30:00,33.2,18.8,29.96,SSW,202,8.0,-999.0,55,0.00,,,0.00,0,WeatherHawk,2013-01-06 09:30:00,
2013-01-06 04:35:00,33.2,19.2,29.96,ESE,123,12.0,-999.0,56,0.00,,,0.00,1,WeatherHawk,2013-01-06 09:35:00,
2013-01-06 04:40:00,33.3,19.3,29.95,SSW,197,11.0,-999.0,56,0.00,,,0.00,0,WeatherHawk,2013-01-06 09:40:00,
2013-01-06 04:45:00,33.1,19.1,29.95,South,180,7.0,-999.0,56,0.00,,,0.00,0,WeatherHawk,2013-01-06 09:45:00,
2013-01-06 04:50:00,33.1,19.6,29.95,SSE,152,13.0,-999.0,57,0.00,,,0.00,0,WeatherHawk,2013-01-06 09:50:00,
2013-01-06 04:55:00,33.1,19.6,29.95,SSE,168,9.0,-999.0,57,0.00,,,0.00,0,WeatherHawk,2013-01-06 09:55:00,
2013-01-06 05:00:00,33.1,19.5,29.94,SSE,165,11.0,-999.0,57,0.00,,,0.00,0,WeatherHawk,2013-01-06 10:00:00,
2013-01-06 05:10:00,33.2,20.0,29.94,SSW,204,14.0,-999.0,58,0.00,,,0.00,0,WeatherHawk,2013-01-06 10:10:00,
2013-01-06 05:15:00,33.1,20.0,29.94,ESE,112,11.0,-999.0,58,0.00,,,0.00,0,WeatherHawk,2013-01-06 10:15:00,
2013-01-06 05:21:00,33.1,20.3,29.94,SW,218,10.0,-999.0,59,0.00,,,0.00,1,WeatherHawk,2013-01-06 10:21:00,
2013-01-06 05:30:00,33.1,20.4,29.94,SSE,159,13.0,-999.0,59,0.00,,,0.00,0,WeatherHawk,2013-01-06 10:30:00,
2013-01-06 05:35:00,33.1,20.3,29.95,South,174,13.0,-999.0,59,0.00,,,0.00,1,WeatherHawk,2013-01-06 10:35:00,
2013-01-06 05:45:00,33.0,20.7,29.94,SSW,192,8.0,-999.0,60,0.00,,,0.00,0,WeatherHawk,2013-01-06 10:45:00,
2013-01-06 05:50:00,33.1,20.7,29.94,WSW,237,11.0,-999.0,60,0.00,,,0.00,0,WeatherHawk,2013-01-06 10:50:00,
2013-01-06 05:58:00,33.1,20.7,29.94,South,188,11.0,-999.0,60,0.00,,,0.00,0,WeatherHawk,2013-01-06 10:58:00,
2013-01-06 06:05:00,33.3,21.3,29.94,South,187,6.0,-999.0,61,0.00,,,0.00,0,WeatherHawk,2013-01-06 11:05:00,
2013-01-06 06:15:00,33.1,21.5,29.95,South,189,13.0,-999.0,62,0.00,,,0.00,0,WeatherHawk,2013-01-06 11:15:00,
2013-01-06 06:20:00,33.1,21.5,29.94,SSE,163,10.0,-999.0,62,0.00,,,0.00,0,WeatherHawk,2013-01-06 11:20:00,
2013-01-06 06:30:00,33.1,21.5,29.93,SSE,155,7.0,-999.0,62,0.00,,,0.00,0,WeatherHawk,2013-01-06 11:30:00,
2013-01-06 06:35:00,33.2,21.2,29.94,SSE,161,11.0,-999.0,61,0.00,,,0.00,0,WeatherHawk,2013-01-06 11:35:00,
2013-01-06 06:40:00,33.1,21.2,29.94,South,171,10.0,-999.0,61,0.00,,,0.00,0,WeatherHawk,2013-01-06 11:40:00,
2013-01-06 06:45:00,33.2,21.2,29.93,SSW,201,10.0,-999.0,61,0.00,,,0.00,0,WeatherHawk,2013-01-06 11:45:00,
2013-01-06 06:54:00,33.2,20.8,29.94,SSW,192,6.0,-999.0,60,0.00,,,0.00,0,WeatherHawk,2013-01-06 11:54:00,
2013-01-06 06:59:00,33.2,20.8,29.95,SW,216,6.0,-999.0,60,0.00,,,0.00,0,WeatherHawk,2013-01-06 11:59:00,
2013-01-06 07:04:00,33.2,20.9,29.93,ESE,117,16.0,-999.0,60,0.00,,,0.00,0,WeatherHawk,2013-01-06 12:04:00,
2013-01-06 07:09:00,33.1,20.8,29.94,SW,231,6.0,-999.0,60,0.00,,,0.00,0,WeatherHawk,2013-01-06 12:09:00,
2013-01-06 07:14:00,33.2,20.8,29.93,South,170,8.0,-999.0,60,0.00,,,0.00,0,WeatherHawk,2013-01-06 12:14:00,
2013-01-06 07:19:00,33.4,21.0,29.94,South,177,5.0,-999.0,60,0.00,,,0.00,0,WeatherHawk,2013-01-06 12:19:00,
2013-01-06 07:25:00,33.0,20.7,29.93,South,190,6.0,-999.0,60,0.00,,,0.00,0,WeatherHawk,2013-01-06 12:25:00,
2013-01-06 07:35:00,33.2,20.8,29.94,SSE,168,9.0,-999.0,60,0.00,,,0.00,0,WeatherHawk,2013-01-06 12:35:00,
2013-01-06 07:39:00,33.2,20.8,29.94,SE,129,8.0,-999.0,60,0.00,,,0.00,0,WeatherHawk,2013-01-06 12:39:00,
2013-01-06 07:44:00,33.1,20.8,29.93,SE,139,6.0,-999.0,60,0.00,,,0.00,0,WeatherHawk,2013-01-06 12:44:00,
2013-01-06 07:49:00,33.0,20.7,29.94,SSW,203,6.0,-999.0,60,0.00,,,0.00,0,WeatherHawk,2013-01-06 12:49:00,
2013-01-06 07:54:00,33.0,20.7,29.94,South,186,7.0,-999.0,60,0.00,,,0.00,0,WeatherHawk,2013-01-06 12:54:00,
2013-01-06 07:59:00,33.1,20.8,29.93,SSE,168,6.0,-999.0,60,0.00,,,0.00,0,WeatherHawk,2013-01-06 12:59:00,
2013-01-06 08:05:00,33.0,20.6,29.93,South,178,5.0,-999.0,60,0.00,,,0.00,1,WeatherHawk,2013-01-06 13:05:00,
2013-01-06 08:14:00,33.6,21.6,29.94,SE,137,3.0,-999.0,61,0.00,,,0.00,1,WeatherHawk,2013-01-06 13:14:00,
2013-01-06 08:19:00,33.0,21.4,29.94,South,185,6.0,-999.0,62,0.00,,,0.00,3,WeatherHawk,2013-01-06 13:19:00,
2013-01-06 08:25:00,33.0,21.4,29.94,South,181,7.0,-999.0,62,0.00,,,0.00,7,WeatherHawk,2013-01-06 13:25:00,
2013-01-06 08:34:00,33.1,21.1,29.94,SE,129,7.0,-999.0,61,0.00,,,0.00,6,WeatherHawk,2013-01-06 13:34:00,
2013-01-06 08:40:00,33.2,21.3,29.94,SSE,164,10.0,-999.0,61,0.00,,,0.00,6,WeatherHawk,2013-01-06 13:40:00,
2013-01-06 08:44:00,33.1,21.1,29.94,SSW,204,6.0,-999.0,61,0.00,,,0.00,6,WeatherHawk,2013-01-06 13:44:00,
2013-01-06 08:50:00,33.2,21.2,29.93,SSW,195,8.0,-999.0,61,0.00,,,0.00,6,WeatherHawk,2013-01-06 13:50:00,
2013-01-06 08:55:00,33.3,21.3,29.94,South,176,7.0,-999.0,61,0.00,,,0.00,9,WeatherHawk,2013-01-06 13:55:00,
2013-01-06 08:59:00,33.8,22.2,29.95,SE,126,3.0,-999.0,62,0.00,,,0.00,6,WeatherHawk,2013-01-06 13:59:00,
2013-01-06 09:05:00,33.3,20.9,29.94,South,180,7.0,-999.0,60,0.00,,,0.00,8,WeatherHawk,2013-01-06 14:05:00,
2013-01-06 09:09:00,33.3,20.9,29.94,SW,231,6.0,-999.0,60,0.00,,,0.00,16,WeatherHawk,2013-01-06 14:09:00,
2013-01-06 09:15:00,33.3,21.0,29.94,South,179,5.0,-999.0,60,0.00,,,0.00,16,WeatherHawk,2013-01-06 14:15:00,
2013-01-06 09:20:00,33.4,21.4,29.95,South,180,5.0,-999.0,61,0.00,,,0.00,19,WeatherHawk,2013-01-06 14:20:00,
2013-01-06 09:24:00,33.3,21.3,29.94,SSW,195,6.0,-999.0,61,0.00,,,0.00,20,WeatherHawk,2013-01-06 14:24:00,
2013-01-06 09:30:00,33.4,22.2,29.95,SW,221,5.0,-999.0,63,0.00,,,0.00,21,WeatherHawk,2013-01-06 14:30:00,
2013-01-06 09:40:00,33.5,21.9,29.95,South,170,9.0,-999.0,62,0.00,,,0.00,35,WeatherHawk,2013-01-06 14:40:00,
2013-01-06 09:45:00,33.7,21.7,29.94,SE,132,5.0,-999.0,61,0.00,,,0.00,43,WeatherHawk,2013-01-06 14:45:00,
2013-01-06 09:50:00,33.6,21.2,29.95,South,190,6.0,-999.0,60,0.00,,,0.00,44,WeatherHawk,2013-01-06 14:50:00,
2013-01-06 09:55:00,33.8,21.4,29.94,ESE,107,7.0,-999.0,60,0.00,,,0.00,48,WeatherHawk,2013-01-06 14:55:00,
2013-01-06 10:00:00,33.7,20.9,29.95,SSE,168,7.0,-999.0,59,0.00,,,0.00,27,WeatherHawk,2013-01-06 15:00:00,
2013-01-06 10:09:00,33.7,20.9,29.95,SSW,201,7.0,-999.0,59,0.00,,,0.00,31,WeatherHawk,2013-01-06 15:09:00,
2013-01-06 10:15:00,33.8,21.0,29.96,SSE,150,6.0,-999.0,59,0.00,,,0.00,44,WeatherHawk,2013-01-06 15:15:00,
2013-01-06 10:25:00,33.7,21.7,29.95,South,191,8.0,-999.0,61,0.00,,,0.00,53,WeatherHawk,2013-01-06 15:25:00,
2013-01-06 10:29:00,33.8,22.1,29.96,SW,222,6.0,-999.0,62,0.00,,,0.00,78,WeatherHawk,2013-01-06 15:29:00,
2013-01-06 10:35:00,33.6,22.4,29.96,SSW,204,6.0,-999.0,63,0.00,,,0.00,82,WeatherHawk,2013-01-06 15:35:00,
2013-01-06 10:40:00,33.8,22.6,29.96,SE,143,9.0,-999.0,63,0.00,,,0.00,102,WeatherHawk,2013-01-06 15:40:00,
2013-01-06 10:50:00,34.0,22.4,29.95,SSE,167,6.0,-999.0,62,0.00,,,0.00,75,WeatherHawk,2013-01-06 15:50:00,
2013-01-06 10:55:00,34.1,22.1,29.95,South,180,5.0,-999.0,61,0.00,,,0.00,89,WeatherHawk,2013-01-06 15:55:00,
2013-01-06 11:00:00,34.1,21.7,29.95,SE,143,12.0,-999.0,60,0.00,,,0.00,99,WeatherHawk,2013-01-06 16:00:00,
2013-01-06 11:05:00,34.2,21.0,29.95,SSW,198,8.0,-999.0,58,0.00,,,0.00,94,WeatherHawk,2013-01-06 16:05:00,
2013-01-06 11:10:00,34.4,20.3,29.95,SW,224,8.0,-999.0,56,0.00,,,0.00,109,WeatherHawk,2013-01-06 16:10:00,
2013-01-06 11:15:00,34.6,20.1,29.96,SSE,156,8.0,-999.0,55,0.00,,,0.00,106,WeatherHawk,2013-01-06 16:15:00,
2013-01-06 11:20:00,34.4,19.5,29.95,SW,220,9.0,-999.0,54,0.00,,,0.00,84,WeatherHawk,2013-01-06 16:20:00,
2013-01-06 11:30:00,34.6,19.7,29.95,SSW,207,7.0,-999.0,54,0.00,,,0.00,80,WeatherHawk,2013-01-06 16:30:00,
2013-01-06 11:40:00,34.3,20.6,29.95,SSE,155,7.0,-999.0,57,0.00,,,0.00,83,WeatherHawk,2013-01-06 16:40:00,
2013-01-06 11:45:00,34.2,21.7,29.95,SSW,205,10.0,-999.0,60,0.00,,,0.00,122,WeatherHawk,2013-01-06 16:45:00,
2013-01-06 11:50:00,33.9,22.2,29.94,South,187,8.0,-999.0,62,0.00,,,0.00,100,WeatherHawk,2013-01-06 16:50:00,
2013-01-06 12:00:00,34.1,23.9,29.95,SSW,200,11.0,-999.0,66,0.00,,,0.00,153,WeatherHawk,2013-01-06 17:00:00,
2013-01-06 12:05:00,34.1,23.6,29.95,SSW,206,9.0,-999.0,65,0.00,,,0.00,112,WeatherHawk,2013-01-06 17:05:00,
2013-01-06 12:10:00,34.0,23.8,29.94,South,178,9.0,-999.0,66,0.00,,,0.00,71,WeatherHawk,2013-01-06 17:10:00,
2013-01-06 12:15:00,33.8,23.7,29.95,SW,219,10.0,-999.0,66,0.00,,,0.00,81,WeatherHawk,2013-01-06 17:15:00,
2013-01-06 12:20:00,33.8,24.1,29.94,SSW,195,5.0,-999.0,67,0.00,,,0.00,74,WeatherHawk,2013-01-06 17:20:00,
2013-01-06 12:25:00,33.8,23.7,29.95,SSW,212,10.0,-999.0,66,0.00,,,0.00,60,WeatherHawk,2013-01-06 17:25:00,
2013-01-06 12:30:00,33.9,23.4,29.95,SSW,198,10.0,-999.0,65,0.00,,,0.00,51,WeatherHawk,2013-01-06 17:30:00,
2013-01-06 12:35:00,33.9,23.8,29.95,South,175,7.0,-999.0,66,0.00,,,0.00,68,WeatherHawk,2013-01-06 17:35:00,
2013-01-06 12:40:00,33.9,23.7,29.95,South,183,8.0,-999.0,66,0.00,,,0.00,90,WeatherHawk,2013-01-06 17:40:00,
2013-01-06 12:45:00,34.1,23.6,29.94,SW,227,7.0,-999.0,65,0.00,,,0.00,96,WeatherHawk,2013-01-06 17:45:00,
2013-01-06 12:50:00,34.0,22.4,29.94,South,175,10.0,-999.0,62,0.00,,,0.00,107,WeatherHawk,2013-01-06 17:50:00,
2013-01-06 12:55:00,34.1,22.5,29.94,SW,217,12.0,-999.0,62,0.00,,,0.00,87,WeatherHawk,2013-01-06 17:55:00,
2013-01-06 13:05:00,34.0,22.8,29.94,SW,217,5.0,-999.0,63,0.00,,,0.00,71,WeatherHawk,2013-01-06 18:05:00,
2013-01-06 13:15:00,33.9,22.7,29.94,SSW,199,7.0,-999.0,63,0.00,,,0.00,58,WeatherHawk,2013-01-06 18:15:00,
2013-01-06 13:20:00,33.9,22.3,29.94,WSW,240,3.0,-999.0,62,0.00,,,0.00,38,WeatherHawk,2013-01-06 18:20:00,
2013-01-06 13:30:00,33.9,22.3,29.95,WSW,240,6.0,-999.0,62,0.00,,,0.00,36,WeatherHawk,2013-01-06 18:30:00,
2013-01-06 13:35:00,33.9,22.2,29.95,SSW,192,3.0,-999.0,62,0.00,,,0.00,36,WeatherHawk,2013-01-06 18:35:00,
2013-01-06 13:45:00,33.7,22.8,29.94,South,189,8.0,-999.0,64,0.00,,,0.00,27,WeatherHawk,2013-01-06 18:45:00,
2013-01-06 13:50:00,33.5,23.0,29.95,WSW,257,6.0,-999.0,65,0.00,,,0.00,18,WeatherHawk,2013-01-06 18:50:00,
2013-01-06 13:55:00,33.1,22.6,29.96,SW,236,3.0,-999.0,65,0.00,,,0.00,26,WeatherHawk,2013-01-06 18:55:00,
2013-01-06 14:00:00,32.9,21.4,29.96,West,271,10.0,-999.0,62,0.00,,,0.00,34,WeatherHawk,2013-01-06 19:00:00,
2013-01-06 14:05:00,32.8,21.3,29.96,NNW,328,6.0,-999.0,62,0.00,,,0.00,45,WeatherHawk,2013-01-06 19:05:00,
2013-01-06 14:10:00,32.7,20.4,29.96,West,272,6.0,-999.0,60,0.00,,,0.00,57,WeatherHawk,2013-01-06 19:10:00,
2013-01-06 14:15:00,32.6,20.3,29.97,SSW,210,9.0,-999.0,60,0.00,,,0.00,50,WeatherHawk,2013-01-06 19:15:00,
2013-01-06 14:20:00,32.5,20.2,29.97,West,265,10.0,-999.0,60,0.00,,,0.00,41,WeatherHawk,2013-01-06 19:20:00,
2013-01-06 14:25:00,32.4,20.5,29.97,West,262,8.0,-999.0,61,0.00,,,0.00,51,WeatherHawk,2013-01-06 19:25:00,
2013-01-06 14:30:00,32.4,20.1,29.98,NW,311,6.0,-999.0,60,0.00,,,0.00,51,WeatherHawk,2013-01-06 19:30:00,
2013-01-06 14:35:00,32.6,20.2,29.98,South,174,3.0,-999.0,60,0.00,,,0.00,46,WeatherHawk,2013-01-06 19:35:00,
2013-01-06 14:50:00,32.4,19.7,29.98,NW,321,8.0,-999.0,59,0.00,,,0.00,43,WeatherHawk,2013-01-06 19:50:00,
2013-01-06 14:55:00,32.4,19.7,29.99,WSW,247,5.0,-999.0,59,0.00,,,0.00,36,WeatherHawk,2013-01-06 19:55:00,
2013-01-06 15:05:00,32.2,17.4,30.00,West,268,13.0,-999.0,54,0.00,,,0.00,30,WeatherHawk,2013-01-06 20:05:00,
2013-01-06 15:10:00,32.0,17.2,30.00,South,189,9.0,-999.0,54,0.00,,,0.00,22,WeatherHawk,2013-01-06 20:10:00,
2013-01-06 15:15:00,31.8,17.5,30.00,West,272,5.0,-999.0,55,0.00,,,0.00,19,WeatherHawk,2013-01-06 20:15:00,
2013-01-06 15:20:00,31.6,18.9,30.01,NW,305,8.0,-999.0,59,0.00,,,0.00,17,WeatherHawk,2013-01-06 20:20:00,
2013-01-06 15:25:00,31.8,18.3,30.01,West,268,4.0,-999.0,57,0.00,,,0.00,14,WeatherHawk,2013-01-06 20:25:00,
2013-01-06 15:30:00,31.7,17.4,30.02,WSW,255,3.0,-999.0,55,0.00,,,0.00,13,WeatherHawk,2013-01-06 20:30:00,
2013-01-06 15:35:00,31.7,17.4,30.02,WSW,240,2.0,-999.0,55,0.00,,,0.00,16,WeatherHawk,2013-01-06 20:35:00,
2013-01-06 15:45:00,32.0,16.4,30.03,NW,315,6.0,-999.0,52,0.00,,,0.00,59,WeatherHawk,2013-01-06 20:45:00,
2013-01-06 15:50:00,32.2,14.7,30.03,WSW,242,5.0,-999.0,48,0.00,,,0.00,82,WeatherHawk,2013-01-06 20:50:00,
2013-01-06 15:55:00,32.3,13.8,30.03,West,281,6.0,-999.0,46,0.00,,,0.00,66,WeatherHawk,2013-01-06 20:55:00,
2013-01-06 16:00:00,32.2,11.7,30.04,SW,225,5.0,-999.0,42,0.00,,,0.00,63,WeatherHawk,2013-01-06 21:00:00,
2013-01-06 16:05:00,32.5,11.5,30.04,SW,232,3.0,-999.0,41,0.00,,,0.00,35,WeatherHawk,2013-01-06 21:05:00,
2013-01-06 16:09:00,32.1,9.4,30.04,SSW,205,7.0,-999.0,38,0.00,,,0.00,20,WeatherHawk,2013-01-06 21:09:00,
2013-01-06 16:14:00,32.0,8.7,30.05,SSW,205,6.0,-999.0,37,0.00,,,0.00,11,WeatherHawk,2013-01-06 21:14:00,
2013-01-06 16:19:00,32.0,9.3,30.04,WSW,253,9.0,-999.0,38,0.00,,,0.00,11,WeatherHawk,2013-01-06 21:19:00,
2013-01-06 16:25:00,31.9,9.8,30.05,WNW,295,5.0,-999.0,39,0.00,,,0.00,9,WeatherHawk,2013-01-06 21:25:00,
2013-01-06 16:34:00,31.9,9.2,30.06,North,7,7.0,-999.0,38,0.00,,,0.00,6,WeatherHawk,2013-01-06 21:34:00,
2013-01-06 16:39:00,31.8,9.1,30.06,West,271,5.0,-999.0,38,0.00,,,0.00,5,WeatherHawk,2013-01-06 21:39:00,
2013-01-06 16:44:00,31.8,9.1,30.07,WNW,284,2.0,-999.0,38,0.00,,,0.00,4,WeatherHawk,2013-01-06 21:44:00,
2013-01-06 16:49:00,31.7,9.6,30.07,NW,309,2.0,-999.0,39,0.00,,,0.00,2,WeatherHawk,2013-01-06 21:49:00,
2013-01-06 16:54:00,31.6,9.5,30.08,SW,230,3.0,-999.0,39,0.00,,,0.00,3,WeatherHawk,2013-01-06 21:54:00,
2013-01-06 16:59:00,31.6,10.1,30.08,NE,37,6.0,-999.0,40,0.00,,,0.00,1,WeatherHawk,2013-01-06 21:59:00,
2013-01-06 17:04:00,31.6,10.1,30.08,SW,232,9.0,-999.0,40,0.00,,,0.00,1,WeatherHawk,2013-01-06 22:04:00,
2013-01-06 17:10:00,31.5,10.5,30.08,SSW,196,2.0,-999.0,41,0.00,,,0.00,0,WeatherHawk,2013-01-06 22:10:00,
2013-01-06 17:14:00,31.5,10.5,30.08,SW,223,9.0,-999.0,41,0.00,,,0.00,0,WeatherHawk,2013-01-06 22:14:00,
2013-01-06 17:19:00,31.5,11.0,30.09,West,273,5.0,-999.0,42,0.00,,,0.00,2,WeatherHawk,2013-01-06 22:19:00,
2013-01-06 17:24:00,31.5,11.1,30.10,West,275,9.0,-999.0,42,0.00,,,0.00,1,WeatherHawk,2013-01-06 22:24:00,
2013-01-06 17:30:00,31.4,11.5,30.09,SSW,211,9.0,-999.0,43,0.00,,,0.00,1,WeatherHawk,2013-01-06 22:30:00,
2013-01-06 17:34:00,31.3,11.4,30.10,WSW,249,6.0,-999.0,43,0.00,,,0.00,0,WeatherHawk,2013-01-06 22:34:00,
2013-01-06 17:40:00,31.2,12.3,30.10,West,277,6.0,-999.0,45,0.00,,,0.00,0,WeatherHawk,2013-01-06 22:40:00,
2013-01-06 17:49:00,31.3,12.4,30.10,WSW,245,5.0,-999.0,45,0.00,,,0.00,0,WeatherHawk,2013-01-06 22:49:00,
2013-01-06 17:54:00,31.2,12.3,30.11,WSW,244,6.0,-999.0,45,0.00,,,0.00,0,WeatherHawk,2013-01-06 22:54:00,
2013-01-06 17:59:00,31.2,12.8,30.11,SSW,205,1.0,-999.0,46,0.00,,,0.00,0,WeatherHawk,2013-01-06 22:59:00,
2013-01-06 18:04:00,31.2,12.8,30.12,West,281,7.0,-999.0,46,0.00,,,0.00,0,WeatherHawk,2013-01-06 23:04:00,
2013-01-06 18:09:00,31.2,12.8,30.12,South,169,9.0,-999.0,46,0.00,,,0.00,0,WeatherHawk,2013-01-06 23:09:00,
2013-01-06 18:14:00,31.1,12.3,30.12,SE,136,7.0,-999.0,45,0.00,,,0.00,0,WeatherHawk,2013-01-06 23:14:00,
2013-01-06 18:19:00,31.2,12.3,30.12,WNW,303,6.0,-999.0,45,0.00,,,0.00,0,WeatherHawk,2013-01-06 23:19:00,
2013-01-06 18:24:00,31.1,12.8,30.14,WNW,303,6.0,-999.0,46,0.00,,,0.00,0,WeatherHawk,2013-01-06 23:24:00,
2013-01-06 18:30:00,31.2,12.9,30.14,West,267,13.0,-999.0,46,0.00,,,0.00,0,WeatherHawk,2013-01-06 23:30:00,
2013-01-06 18:35:00,31.1,12.3,30.14,West,267,6.0,-999.0,45,0.00,,,0.00,0,WeatherHawk,2013-01-06 23:35:00,
2013-01-06 18:39:00,31.1,12.8,30.15,WNW,285,6.0,-999.0,46,0.00,,,0.00,0,WeatherHawk,2013-01-06 23:39:00,
2013-01-06 18:45:00,31.1,12.3,30.16,South,181,4.0,-999.0,45,0.00,,,0.00,0,WeatherHawk,2013-01-06 23:45:00,
2013-01-06 18:49:00,31.2,12.3,30.15,WSW,242,8.0,-999.0,45,0.00,,,0.00,0,WeatherHawk,2013-01-06 23:49:00,
2013-01-06 18:54:00,31.2,12.8,30.17,West,259,9.0,-999.0,46,0.00,,,0.00,0,WeatherHawk,2013-01-06 23:54:00,
2013-01-06 18:59:00,31.1,12.8,30.17,WSW,252,8.0,-999.0,46,0.00,,,0.00,0,WeatherHawk,2013-01-06 23:59:00,
2013-01-06 19:04:00,31.1,12.8,30.17,WSW,256,7.0,-999.0,46,0.00,,,0.00,0,WeatherHawk,2013-01-07 00:04:00,
2013-01-06 19:09:00,30.9,13.1,30.18,NNW,347,4.0,-999.0,47,0.00,,,0.00,0,WeatherHawk,2013-01-07 00:09:00,
2013-01-06 19:14:00,31.1,13.3,30.18,SW,232,7.0,-999.0,47,0.00,,,0.00,0,WeatherHawk,2013-01-07 00:14:00,
2013-01-06 19:19:00,31.0,13.2,30.19,SW,232,6.0,-999.0,47,0.00,,,0.00,0,WeatherHawk,2013-01-07 00:19:00,
2013-01-06 19:24:00,31.1,13.2,30.18,West,279,6.0,-999.0,47,0.00,,,0.00,0,WeatherHawk,2013-01-07 00:24:00,
2013-01-06 19:30:00,31.1,13.2,30.20,WNW,303,4.0,-999.0,47,0.00,,,0.00,0,WeatherHawk,2013-01-07 00:30:00,
2013-01-06 19:34:00,31.1,13.2,30.20,NE,35,3.0,-999.0,47,0.00,,,0.00,0,WeatherHawk,2013-01-07 00:34:00,
2013-01-06 19:39:00,31.0,13.6,30.19,SW,235,6.0,-999.0,48,0.00,,,0.00,0,WeatherHawk,2013-01-07 00:39:00,
2013-01-06 19:44:00,31.0,13.6,30.19,SW,221,7.0,-999.0,48,0.00,,,0.00,0,WeatherHawk,2013-01-07 00:44:00,
2013-01-06 19:50:00,31.0,13.6,30.19,SW,228,8.0,-999.0,48,0.00,,,0.00,0,WeatherHawk,2013-01-07 00:50:00,
2013-01-06 19:59:00,31.0,13.6,30.19,SW,234,6.0,-999.0,48,0.00,,,0.00,0,WeatherHawk,2013-01-07 00:59:00,
2013-01-06 20:04:00,31.0,13.6,30.19,SSW,206,8.0,-999.0,48,0.00,,,0.00,0,WeatherHawk,2013-01-07 01:04:00,
2013-01-06 20:09:00,30.9,13.6,30.20,WSW,252,7.0,-999.0,48,0.00,,,0.00,0,WeatherHawk,2013-01-07 01:09:00,
2013-01-06 20:14:00,31.1,14.2,30.20,ESE,107,8.0,-999.0,49,0.00,,,0.00,0,WeatherHawk,2013-01-07 01:14:00,
2013-01-06 20:19:00,31.0,14.1,30.21,WNW,295,7.0,-999.0,49,0.00,,,0.00,0,WeatherHawk,2013-01-07 01:19:00,
2013-01-06 20:24:00,31.0,14.1,30.20,WSW,254,8.0,-999.0,49,0.00,,,0.00,0,WeatherHawk,2013-01-07 01:24:00,
2013-01-06 20:29:00,30.9,14.0,30.20,SW,235,7.0,-999.0,49,0.00,,,0.00,0,WeatherHawk,2013-01-07 01:29:00,
2013-01-06 20:34:00,31.0,14.6,30.21,SW,218,12.0,-999.0,50,0.00,,,0.00,0,WeatherHawk,2013-01-07 01:34:00,
2013-01-06 20:39:00,30.9,14.0,30.22,West,261,6.0,-999.0,49,0.00,,,0.00,1,WeatherHawk,2013-01-07 01:39:00,
2013-01-06 20:44:00,30.9,14.5,30.23,WSW,258,7.0,-999.0,50,0.00,,,0.00,0,WeatherHawk,2013-01-07 01:44:00,
2013-01-06 20:49:00,30.8,14.4,30.23,WNW,294,6.0,-999.0,50,0.00,,,0.00,0,WeatherHawk,2013-01-07 01:49:00,
2013-01-06 20:54:00,30.9,15.0,30.23,West,269,9.0,-999.0,51,0.00,,,0.00,0,WeatherHawk,2013-01-07 01:54:00,
2013-01-06 20:59:00,30.9,14.9,30.23,West,279,6.0,-999.0,51,0.00,,,0.00,0,WeatherHawk,2013-01-07 01:59:00,
2013-01-06 21:05:00,30.8,14.8,30.24,WSW,241,5.0,-999.0,51,0.00,,,0.00,1,WeatherHawk,2013-01-07 02:05:00,
2013-01-06 21:09:00,30.8,14.9,30.24,NW,315,10.0,-999.0,51,0.00,,,0.00,0,WeatherHawk,2013-01-07 02:09:00,
2013-01-06 21:14:00,30.8,14.8,30.24,WNW,295,6.0,-999.0,51,0.00,,,0.00,0,WeatherHawk,2013-01-07 02:14:00,
2013-01-06 21:19:00,30.7,15.2,30.24,West,262,8.0,-999.0,52,0.00,,,0.00,0,WeatherHawk,2013-01-07 02:19:00,
2013-01-06 21:24:00,30.7,14.8,30.25,NNE,32,7.0,-999.0,51,0.00,,,0.00,0,WeatherHawk,2013-01-07 02:24:00,
2013-01-06 21:29:00,30.8,14.8,30.25,West,276,8.0,-999.0,51,0.00,,,0.00,0,WeatherHawk,2013-01-07 02:29:00,
2013-01-06 21:34:00,30.7,14.8,30.25,West,260,5.0,-999.0,51,0.00,,,0.00,0,WeatherHawk,2013-01-07 02:34:00,
2013-01-06 21:39:00,30.7,14.8,30.25,West,260,8.0,-999.0,51,0.00,,,0.00,0,WeatherHawk,2013-01-07 02:39:00,
2013-01-06 21:44:00,30.7,14.7,30.26,NW,305,6.0,-999.0,51,0.00,,,0.00,0,WeatherHawk,2013-01-07 02:44:00,
2013-01-06 21:50:00,30.7,14.7,30.25,WSW,256,5.0,-999.0,51,0.00,,,0.00,0,WeatherHawk,2013-01-07 02:50:00,
2013-01-06 21:54:00,30.8,14.3,30.26,SW,226,7.0,-999.0,50,0.00,,,0.00,0,WeatherHawk,2013-01-07 02:54:00,
2013-01-06 22:00:00,30.7,14.3,30.26,WNW,290,8.0,-999.0,50,0.00,,,0.00,1,WeatherHawk,2013-01-07 03:00:00,
2013-01-06 22:05:00,30.7,14.3,30.26,WSW,238,8.0,-999.0,50,0.00,,,0.00,0,WeatherHawk,2013-01-07 03:05:00,
2013-01-06 22:10:00,30.5,13.7,30.25,NW,312,6.0,-999.0,49,0.00,,,0.00,0,WeatherHawk,2013-01-07 03:10:00,
2013-01-06 22:15:00,30.7,14.2,30.26,SW,226,6.0,-999.0,50,0.00,,,0.00,0,WeatherHawk,2013-01-07 03:15:00,
2013-01-06 22:20:00,30.6,14.2,30.26,NNW,342,6.0,-999.0,50,0.00,,,0.00,0,WeatherHawk,2013-01-07 03:20:00,
2013-01-06 22:25:00,30.5,14.1,30.26,SW,214,8.0,-999.0,50,0.00,,,0.00,0,WeatherHawk,2013-01-07 03:25:00,
2013-01-06 22:30:00,30.5,14.1,30.28,WSW,237,5.0,-999.0,50,0.00,,,0.00,0,WeatherHawk,2013-01-07 03:30:00,
2013-01-06 22:35:00,30.4,14.0,30.27,WNW,283,6.0,-999.0,50,0.00,,,0.00,0,WeatherHawk,2013-01-07 03:35:00,
2013-01-06 22:40:00,30.5,14.1,30.27,WSW,253,6.0,-999.0,50,0.00,,,0.00,0,WeatherHawk,2013-01-07 03:40:00,
2013-01-06 22:45:00,30.4,14.0,30.28,WSW,242,5.0,-999.0,50,0.00,,,0.00,0,WeatherHawk,2013-01-07 03:45:00,
2013-01-06 22:50:00,30.4,14.0,30.28,WNW,295,6.0,-999.0,50,0.00,,,0.00,1,WeatherHawk,2013-01-07 03:50:00,
2013-01-06 22:55:00,30.4,14.4,30.28,WNW,297,5.0,-999.0,51,0.00,,,0.00,0,WeatherHawk,2013-01-07 03:55:00,
2013-01-06 23:00:00,30.3,14.4,30.28,WNW,286,5.0,-999.0,51,0.00,,,0.00,0,WeatherHawk,2013-01-07 04:00:00,
2013-01-06 23:05:00,30.3,14.4,30.29,NNW,333,5.0,-999.0,51,0.00,,,0.00,0,WeatherHawk,2013-01-07 04:05:00,
2013-01-06 23:10:00,30.3,14.4,30.29,West,268,4.0,-999.0,51,0.00,,,0.00,0,WeatherHawk,2013-01-07 04:10:00,
2013-01-06 23:15:00,30.2,14.3,30.29,West,276,3.0,-999.0,51,0.00,,,0.00,1,WeatherHawk,2013-01-07 04:15:00,
2013-01-06 23:20:00,30.3,14.4,30.30,WSW,240,7.0,-999.0,51,0.00,,,0.00,0,WeatherHawk,2013-01-07 04:20:00,
2013-01-06 23:25:00,30.3,14.3,30.30,WNW,285,6.0,-999.0,51,0.00,,,0.00,0,WeatherHawk,2013-01-07 04:25:00,
2013-01-06 23:34:00,30.2,14.3,30.30,SW,231,6.0,-999.0,51,0.00,,,0.00,0,WeatherHawk,2013-01-07 04:34:00,
2013-01-06 23:40:00,30.2,13.8,30.30,WSW,243,4.0,-999.0,50,0.00,,,0.00,0,WeatherHawk,2013-01-07 04:40:00,
2013-01-06 23:45:00,30.2,14.3,30.30,NNW,338,5.0,-999.0,51,0.00,,,0.00,0,WeatherHawk,2013-01-07 04:45:00,
2013-01-06 23:50:00,30.1,14.2,30.31,WNW,297,4.0,-999.0,51,0.00,,,0.00,0,WeatherHawk,2013-01-07 04:50:00,
2013-01-06 23:55:00,30.1,13.7,30.32,SW,216,5.0,-999.0,50,0.00,,,0.00,0,WeatherHawk,2013-01-07 04:55:00,